[[{"header":{"parameterUnit":"m.s-1","parameterCategory":2,"la1":30.2992,"la2":30.254,"lo1":-89.0895,"lo2":-89.0443,"dy":0.0025,"dx":0.0025,"nx":19,"ny":19,"refTime":"2026-04-04T21:00:00:Z","depth":"0","parameterNumber":2,"parameterNumberName":"U-component_of_CURRENTS"},"data":[0,0,0,0.2434,0.2435,0.2443,0.2443,0.241,0.241,0,0,0,0,0,0,0,0,0,0,0,0.2418,0.2418,0.2434,0.2435,0.2443,0.2443,0.241,0.241,0,0,0,0,0,0,0,0,0,0,0,0.2418,0.2418,0.2418,0.2435,0.2443,0.2443,0.241,0.241,0,0,0,0,0,0,0,0,0,0,0.2405,0.2393,0.2418,0.2418,0.2435,0.2443,0.2443,0.241,0.241,0.24,0,0.2408,0,0.2422,0.2409,0.2409,0,0,0,0.2414,0.2393,0.2413,0.2418,0.2435,0.2443,0.2433,0.241,0.241,0.24,0.2408,0.2407,0.2422,0.2409,0.2408,0.2444,0.2444,0,0,0.2414,0.24,0.2413,0.2413,0.2445,0.2433,0.2434,0.241,0.2402,0.2408,0.2407,0.2421,0.2408,0.2408,0.2443,0.2444,0,0,0,0.2426,0.2399,0.242,0.2414,0.2427,0.2434,0.2435,0.2402,0.2414,0.2407,0.2421,0.2408,0.2408,0.2443,0.2443,0.2475,0,0,0,0.2425,0.2409,0.242,0.2408,0.2428,0.2419,0.2427,0.2415,0.2414,0.2421,0.2408,0.2408,0.2442,0.2443,0.2473,0.2484,0,0,0,0.2416,0.2407,0.2415,0.2408,0.2425,0.242,0.2429,0.2415,0.2423,0.2409,0.2408,0.2442,0.2443,0.2471,0.2481,0.2549,0,0,0,0.2392,0.2385,0.2414,0.2405,0.2425,0.2436,0.2429,0.2421,0.2408,0.2408,0.2442,0.2443,0.247,0.2479,0.2546,0.2547,0.2559,0,0,0.2368,0.2381,0.2376,0.2404,0.2407,0.2433,0.2446,0.2427,0.2428,0.2442,0.2443,0.2474,0.2481,0.2548,0.262,0.263,0,0,0,0.2359,0.2355,0.2359,0.237,0.2396,0.2433,0.2434,0.2458,0.2482,0.2433,0.2491,0.2494,0.2536,0.2531,0.254,0.2573,0.2449,0.2449,0.2449,0.2306,0.2326,0.2315,0.2348,0.237,0.243,0.2468,0.2508,0.2495,0.253,0.2533,0.2621,0.2616,0.2623,0.2657,0.2549,0.2549,0.2549,0.2549,0.2258,0.224,0.2289,0.2283,0.2354,0.2385,0.2501,0.2533,0.2623,0.2591,0.2631,0.258,0.2634,0.2667,0.2552,0.2551,0.2551,0.2551,0.255,0.2197,0.219,0.2202,0.2222,0.2277,0.2369,0.247,0.2565,0.2647,0.2692,0.271,0.2709,0.2729,0.2721,0.2721,0.2721,0.2722,0.2722,0.2722,0.2119,0.2133,0.2123,0.2158,0.2188,0.2285,0.2458,0.2556,0.2702,0.2753,0.2753,0.2769,0.2674,0.2657,0.2728,0.2727,0.2726,0.2725,0.2725,0.2016,0.2041,0.2025,0.2041,0.2112,0.2161,0.2357,0.2569,0.2706,0.2779,0.2873,0.2799,0.2795,0.2788,0.2774,0.2872,0.2872,0.2872,0.2872,0.1951,0.1962,0.1939,0.1949,0.2001,0.21,0.2207,0.2431,0.2742,0.2875,0.2954,0.2908,0.29,0.29,0.289,0.2877,0.2999,0.2999,0.2999,0.1892,0.1903,0.1862,0.1879,0.1927,0.2015,0.2059,0.2247,0.2735,0.3008,0.3006,0.3001,0.2934,0.2919,0.2914,0.2897,0.2873,0,0]},{"header":{"parameterUnit":"m.s-1","parameterCategory":2,"la1":30.2992,"la2":30.254,"lo1":-89.0895,"lo2":-89.0443,"dy":0.0025,"dx":0.0025,"nx":19,"ny":19,"refTime":"2026-04-04T21:00:00:Z","depth":"0","parameterNumber":3,"parameterNumberName":"V-component_of_CURRENTS"},"data":[0,0,0,0.0122,0.012,0.0031,0.003,-0.0096,-0.0097,0,0,0,0,0,0,0,0,0,0,0,0.0156,0.0156,0.0122,0.012,0.0031,0.003,-0.0096,-0.0097,0,0,0,0,0,0,0,0,0,0,0,0.0157,0.0156,0.0156,0.012,0.0031,0.003,-0.0096,-0.003,0,0,0,0,0,0,0,0,0,0,0.0057,0.0097,0.0156,0.0156,0.012,0.0031,0.003,-0.0026,-0.0034,-0.0054,0,-0.0054,0,-0.0074,-0.0105,-0.0105,0,0,0,0.0103,0.0103,0.0082,0.0156,0.0119,0.0032,0.0066,-0.0031,-0.0039,-0.0064,-0.0056,-0.0061,-0.0076,-0.0105,-0.0106,-0.0128,-0.0128,0,0,0.0108,0.0132,0.0088,0.0077,0.0113,0.0069,0.0064,-0.0036,-0.0038,-0.0057,-0.0064,-0.0078,-0.0106,-0.0107,-0.0129,-0.0128,0,0,0,0.0134,0.0135,0.0116,0.0083,0.007,0.0067,0.0061,-0.0034,-0.0039,-0.0066,-0.0079,-0.0107,-0.0108,-0.0129,-0.0129,-0.0023,0,0,0,0.0136,0.0151,0.0119,0.013,0.0073,0.0019,0.0065,-0.0032,-0.0044,-0.0079,-0.0107,-0.0109,-0.013,-0.0129,-0.0027,0.0037,0,0,0,0.0157,0.0153,0.0149,0.0132,0.0101,0.002,0.0008,-0.0036,-0.0052,-0.0105,-0.0109,-0.013,-0.0129,-0.0031,0.003,0.0072,0,0,0,0.0174,0.0192,0.015,0.0161,0.0102,0.0082,0.0008,-0.0025,-0.0062,-0.0107,-0.013,-0.0129,-0.0032,0.0025,0.0068,0.0145,0.0171,0,0,0.021,0.0197,0.0203,0.0164,0.0174,0.0092,0.01,0.0015,-0.0049,-0.0103,-0.0104,-0.0026,0.0029,0.0072,0.0222,0.0246,0,0,0,0.0223,0.0234,0.0227,0.022,0.0186,0.0174,0.0087,0.0055,0.0007,-0.0063,-0.0028,0.0004,0.0027,0.0064,0.0083,-0.0006,-0.0122,-0.0123,-0.0123,0.0307,0.0285,0.0309,0.0287,0.0274,0.0224,0.0209,0.0151,0.007,0.0073,0.0087,0.0191,0.0233,0.0248,0.0156,0.0074,0.0074,0.0074,0.0075,0.0377,0.0391,0.0377,0.0389,0.0373,0.037,0.032,0.0274,0.0259,0.0182,0.0198,0.0171,0.0275,0.0169,0.0081,0.008,0.0079,0.0079,0.0078,0.0429,0.0436,0.0438,0.0465,0.0494,0.0461,0.0519,0.0456,0.0366,0.0391,0.0396,0.0394,0.0301,0.0388,0.0389,0.0389,0.039,0.039,0.039,0.0475,0.0482,0.052,0.0544,0.058,0.0632,0.0631,0.0636,0.0597,0.0533,0.0532,0.0339,0.0287,0.0275,0.0398,0.0397,0.0396,0.0395,0.0394,0.0527,0.0528,0.0593,0.0634,0.0733,0.0847,0.0839,0.0874,0.0839,0.0839,0.0576,0.0592,0.0564,0.0547,0.0541,0.0726,0.0726,0.0726,0.0726,0.0565,0.0568,0.0662,0.0752,0.0871,0.0949,0.1109,0.1116,0.0915,0.0788,0.0661,0.0593,0.0583,0.0549,0.0533,0.0523,0.0699,0.0698,0.0698,0.0606,0.0629,0.0707,0.0788,0.0929,0.1075,0.1239,0.1338,0.1004,0.0682,0.0526,0.0527,0.0404,0.0396,0.0318,0.0303,0.0276,0,0]}],[{"header":{"parameterUnit":"m.s-1","parameterCategory":2,"la1":30.2992,"la2":30.254,"lo1":-89.0895,"lo2":-89.0443,"dy":0.0025,"dx":0.0025,"nx":19,"ny":19,"refTime":"2026-04-04T21:00:00:Z","depth":"2","parameterNumber":2,"parameterNumberName":"U-component_of_CURRENTS"},"data":[0,0,0,0.2317,0.2318,0.2366,0.2366,0.2363,0.2363,0,0,0,0,0,0,0,0,0,0,0,0.2293,0.2294,0.2316,0.2318,0.2366,0.2366,0.2363,0.2363,0,0,0,0,0,0,0,0,0,0,0,0.2293,0.2294,0.2295,0.2319,0.2366,0.2366,0.2363,0.2338,0,0,0,0,0,0,0,0,0,0,0.2298,0.2287,0.2294,0.2295,0.2319,0.2366,0.2366,0.2338,0.234,0.2329,0,0.2348,0,0.2366,0.2363,0.2363,0,0,0,0.23,0.2285,0.2309,0.2295,0.232,0.2366,0.2339,0.2339,0.2342,0.2332,0.2349,0.2349,0.2366,0.2363,0.2363,0.2409,0.2409,0,0,0.2297,0.2287,0.2308,0.2311,0.2347,0.2338,0.2341,0.2341,0.2342,0.2349,0.235,0.2366,0.2363,0.2363,0.2408,0.2409,0,0,0,0.2302,0.2285,0.231,0.231,0.2331,0.234,0.2343,0.2342,0.2354,0.235,0.2366,0.2363,0.2363,0.2408,0.2408,0.2442,0,0,0,0.23,0.229,0.2309,0.2301,0.2331,0.2345,0.2343,0.2353,0.2354,0.2366,0.2363,0.2363,0.2407,0.2408,0.244,0.245,0,0,0,0.2289,0.2289,0.2301,0.2301,0.2332,0.2346,0.2356,0.2354,0.2365,0.2363,0.2363,0.2407,0.2408,0.2438,0.2447,0.2511,0,0,0,0.2266,0.2274,0.2301,0.2311,0.2332,0.2359,0.2357,0.2365,0.2364,0.2363,0.2407,0.2408,0.2437,0.2445,0.2509,0.2483,0.2492,0,0,0.2258,0.2273,0.2277,0.2303,0.2322,0.235,0.2378,0.2376,0.238,0.2398,0.2399,0.2441,0.2447,0.2511,0.255,0.2557,0,0,0,0.2262,0.2265,0.2275,0.2297,0.2328,0.2369,0.2383,0.2408,0.2441,0.2392,0.2455,0.2458,0.2497,0.2477,0.2483,0.2414,0.2414,0.2413,0.2413,0.2227,0.2248,0.2252,0.2286,0.2316,0.238,0.2421,0.2463,0.2456,0.2491,0.2496,0.2581,0.2559,0.2563,0.2511,0.2511,0.2511,0.2512,0.2512,0.2195,0.2185,0.2234,0.2242,0.2309,0.2348,0.2459,0.2491,0.258,0.2552,0.2589,0.2526,0.2572,0.2515,0.2514,0.2514,0.2513,0.2513,0.2513,0.2143,0.214,0.2158,0.2188,0.2247,0.2337,0.2434,0.2527,0.2605,0.2649,0.2649,0.2647,0.2606,0.2678,0.2678,0.2679,0.2679,0.2679,0.2679,0.2071,0.2091,0.2089,0.2133,0.2165,0.2261,0.2427,0.2517,0.2645,0.2688,0.2688,0.2637,0.2632,0.2616,0.2685,0.2684,0.2683,0.2683,0.2682,0.1983,0.2007,0.2001,0.2021,0.2096,0.2138,0.2326,0.2509,0.2637,0.2694,0.2723,0.272,0.2712,0.2706,0.2693,0.2777,0.2777,0.2777,0.2777,0.1924,0.1935,0.1923,0.1936,0.1986,0.2077,0.215,0.2306,0.2526,0.2599,0.2606,0.2535,0.2537,0.2514,0.2512,0.2493,0.2526,0.2525,0.2524,0.1871,0.1883,0.1849,0.1869,0.1914,0.1986,0.1984,0.2018,0.2254,0.2507,0.2491,0.2774,0.2688,0.2683,0.266,0.2653,0.2626,0,0]},{"header":{"parameterUnit":"m.s-1","parameterCategory":2,"la1":30.2992,"la2":30.254,"lo1":-89.0895,"lo2":-89.0443,"dy":0.0025,"dx":0.0025,"nx":19,"ny":19,"refTime":"2026-04-04T21:00:00:Z","depth":"2","parameterNumber":3,"parameterNumberName":"V-component_of_CURRENTS"},"data":[0,0,0,0.0034,0.0033,-0.0046,-0.0046,-0.0173,-0.0174,0,0,0,0,0,0,0,0,0,0,0,0.0065,0.0065,0.0034,0.0033,-0.0046,-0.0046,-0.0172,-0.0174,0,0,0,0,0,0,0,0,0,0,0,0.0065,0.0065,0.0065,0.0033,-0.0046,-0.0046,-0.0172,-0.0111,0,0,0,0,0,0,0,0,0,0,-0.0032,0.0006,0.0065,0.0065,0.0033,-0.0046,-0.0047,-0.0107,-0.0114,-0.0139,0,-0.0136,0,-0.0152,-0.0181,-0.0181,0,0,0,0.0016,0.0011,-0.0007,0.0065,0.0032,-0.0045,-0.0015,-0.0111,-0.0119,-0.0148,-0.0138,-0.0143,-0.0155,-0.0182,-0.0182,-0.0213,-0.0212,0,0,0.002,0.0041,-0.0001,-0.0011,0.0029,-0.0012,-0.0017,-0.0116,-0.0119,-0.0139,-0.0146,-0.0157,-0.0182,-0.0183,-0.0213,-0.0213,0,0,0,0.0044,0.0045,0.0029,-0.0006,-0.0015,-0.0014,-0.002,-0.0115,-0.0118,-0.0147,-0.0158,-0.0183,-0.0184,-0.0214,-0.0213,-0.0114,0,0,0,0.0046,0.006,0.0031,0.0041,-0.0012,-0.0062,-0.0016,-0.0112,-0.0123,-0.0157,-0.0183,-0.0186,-0.0214,-0.0213,-0.0118,-0.0056,0,0,0,0.0065,0.0061,0.0059,0.0043,0.0017,-0.0061,-0.0072,-0.0115,-0.0129,-0.0182,-0.0186,-0.0215,-0.0214,-0.0121,-0.0063,-0.0024,0,0,0,0.0079,0.0097,0.006,0.0071,0.0018,-0.0003,-0.0071,-0.0103,-0.014,-0.0184,-0.0214,-0.0213,-0.0122,-0.0067,-0.0028,0.0036,0.006,0,0,0.0113,0.0102,0.0108,0.0073,0.0081,0.0006,0.0009,-0.0071,-0.0131,-0.0189,-0.019,-0.0117,-0.0063,-0.0025,0.0104,0.0126,0,0,0,0.0125,0.0135,0.0129,0.0122,0.0089,0.0077,-0.0005,-0.0036,-0.0083,-0.0145,-0.0121,-0.009,-0.0069,-0.0039,-0.0021,-0.0208,-0.0208,-0.0208,-0.0208,0.0201,0.0181,0.0202,0.0181,0.0168,0.0119,0.0103,0.0047,-0.0029,-0.0026,-0.0012,0.0083,0.0117,0.013,-0.0028,-0.0027,-0.0027,-0.0027,-0.0026,0.0265,0.0278,0.0264,0.0275,0.0258,0.0253,0.0202,0.016,0.0144,0.0074,0.0088,0.0061,0.0155,-0.0019,-0.002,-0.0021,-0.0022,-0.0023,-0.0023,0.0313,0.032,0.0323,0.0348,0.0373,0.034,0.0392,0.0332,0.0246,0.0269,0.0269,0.0268,0.0146,0.0267,0.0268,0.0268,0.0269,0.0269,0.0269,0.0357,0.0365,0.0402,0.0424,0.0458,0.0505,0.0502,0.0504,0.0461,0.0398,0.0397,0.0182,0.0172,0.0163,0.0277,0.0275,0.0274,0.0274,0.0273,0.0407,0.041,0.0474,0.0514,0.0604,0.0709,0.0699,0.0723,0.0688,0.0681,0.0456,0.0449,0.0422,0.0407,0.0402,0.0571,0.0571,0.0571,0.0571,0.0445,0.0448,0.0541,0.0626,0.0737,0.0805,0.094,0.0916,0.0783,0.0674,0.0669,0.0617,0.0604,0.0581,0.0562,0.0558,0.0768,0.0768,0.0768,0.0483,0.0507,0.0584,0.0661,0.0791,0.0922,0.105,0.1048,0.0852,0.0772,0.0666,0.0592,0.0499,0.0484,0.043,0.0408,0.0392,0,0]}],[{"header":{"parameterUnit":"m.s-1","parameterCategory":2,"la1":30.2992,"la2":30.254,"lo1":-89.0895,"lo2":-89.0443,"dy":0.0025,"dx":0.0025,"nx":19,"ny":19,"refTime":"2026-04-04T21:00:00:Z","depth":"4","parameterNumber":2,"parameterNumberName":"U-component_of_CURRENTS"},"data":[0,0,0,0.1546,0.155,0.1736,0.1736,0.1869,0.187,0,0,0,0,0,0,0,0,0,0,0,0.1486,0.1487,0.1545,0.155,0.1736,0.1736,0.1869,0.187,0,0,0,0,0,0,0,0,0,0,0,0.1485,0.1487,0.1489,0.1551,0.1735,0.1736,0.1869,0.1754,0,0,0,0,0,0,0,0,0,0,0.1586,0.1548,0.1486,0.1489,0.1552,0.1735,0.1736,0.1749,0.1761,0.1757,0,0.1801,0,0.1838,0.1877,0.1878,0,0,0,0.1546,0.1539,0.1589,0.1489,0.1554,0.1735,0.1651,0.1757,0.177,0.1772,0.1804,0.1809,0.184,0.1878,0.1879,0.2002,0.2003,0,0,0.1536,0.1515,0.158,0.1597,0.1621,0.1645,0.1656,0.1766,0.1784,0.1804,0.1813,0.1842,0.1879,0.1879,0.2002,0.2002,0,0,0,0.1509,0.1508,0.1558,0.1591,0.1633,0.165,0.1664,0.178,0.1797,0.1815,0.1844,0.1879,0.1881,0.2001,0.2002,0.2041,0,0,0,0.1503,0.1493,0.1553,0.1542,0.1632,0.1724,0.1675,0.179,0.1804,0.1843,0.1879,0.1882,0.2,0.2002,0.2038,0.2045,0,0,0,0.1474,0.1489,0.1517,0.154,0.1623,0.1723,0.1748,0.1794,0.1821,0.1878,0.1882,0.2,0.2001,0.2036,0.2042,0.2095,0,0,0,0.1436,0.1485,0.1517,0.1583,0.1621,0.1726,0.1748,0.1834,0.1886,0.188,0.2001,0.2002,0.2035,0.204,0.2093,0.1837,0,0,0,0.1468,0.1489,0.1525,0.1558,0.1647,0.1699,0.1798,0.1877,0.1902,0.1955,0.1959,0.2039,0.2041,0.2095,0.1921,0,0,0,0,0.1515,0.1542,0.1576,0.1642,0.1717,0.1795,0.1875,0.1916,0.2002,0.1943,0.2056,0.2057,0.2089,0.1934,0.2009,0.2008,0.2008,0.2008,0.2008,0.1507,0.1555,0.1616,0.1688,0.1759,0.187,0.194,0.2011,0.2031,0.2081,0.2102,0.2185,0.2022,0.2122,0.2122,0.2123,0.2123,0.2123,0.2123,0.1527,0.1553,0.1632,0.171,0.1798,0.1889,0.2015,0.2061,0.217,0.2156,0.2187,0.2,0.2127,0.2126,0.2126,0.2125,0.2125,0.2125,0.2124,0.149,0.1509,0.1579,0.1684,0.1792,0.1909,0.201,0.2119,0.2201,0.2246,0.2103,0.2221,0.2203,0.2279,0.228,0.228,0.228,0.228,0.228,0.1413,0.1482,0.1538,0.1656,0.1725,0.1845,0.2022,0.2089,0.2201,0.2119,0.2271,0.2238,0.2232,0.2213,0.2285,0.2284,0.2284,0.2283,0.2283,0.1355,0.1398,0.1462,0.1529,0.1665,0.1726,0.1923,0.1989,0.2049,0.2035,0.2054,0.2064,0.2029,0.203,0.2001,0.2013,0.201,0.2007,0,0.1298,0.1327,0.1395,0.1456,0.1515,0.1646,0.166,0.1764,0.1867,0.1804,0.2063,0.2082,0.2087,0.2045,0.2041,0.2005,0,0,0,0.1256,0.1287,0.1302,0.1379,0.1429,0.1507,0.1651,0.1627,0.1849,0.1824,0.1931,0.1951,0.2149,0.2298,0.2269,0.2263,0.223,0,0]},{"header":{"parameterUnit":"m.s-1","parameterCategory":2,"la1":30.2992,"la2":30.254,"lo1":-89.0895,"lo2":-89.0443,"dy":0.0025,"dx":0.0025,"nx":19,"ny":19,"refTime":"2026-04-04T21:00:00:Z","depth":"4","parameterNumber":3,"parameterNumberName":"V-component_of_CURRENTS"},"data":[0,0,0,0.0042,0.0041,-0.0026,-0.0027,-0.0146,-0.0147,0,0,0,0,0,0,0,0,0,0,0,0.0066,0.0066,0.0042,0.0041,-0.0026,-0.0027,-0.0146,-0.0147,0,0,0,0,0,0,0,0,0,0,0,0.0066,0.0066,0.0066,0.0041,-0.0026,-0.0027,-0.0146,-0.009,0,0,0,0,0,0,0,0,0,0,-0.0022,0.0009,0.0066,0.0066,0.0041,-0.0026,-0.0027,-0.0087,-0.0094,-0.012,0,-0.012,0,-0.013,-0.0155,-0.0155,0,0,0,0.0026,0.0015,-0.0,0.0066,0.004,-0.0026,-0.0,-0.0091,-0.0098,-0.0129,-0.0121,-0.0126,-0.0132,-0.0155,-0.0156,-0.0203,-0.0203,0,0,0.0029,0.0045,0.0005,-0.0004,0.0036,0.0002,-0.0002,-0.0095,-0.01,-0.0122,-0.0129,-0.0134,-0.0156,-0.0157,-0.0204,-0.0203,0,0,0,0.0051,0.0048,0.0035,0.0001,-0.0006,0.0001,-0.0004,-0.0096,-0.0098,-0.013,-0.0136,-0.0157,-0.0158,-0.0204,-0.0203,-0.0128,0,0,0,0.0052,0.0061,0.0037,0.0044,-0.0003,-0.0047,-0.0003,-0.0092,-0.0103,-0.0135,-0.0157,-0.0159,-0.0204,-0.0204,-0.0131,-0.0079,0,0,0,0.0067,0.0062,0.006,0.0046,0.0024,-0.0045,-0.0054,-0.0095,-0.0106,-0.0155,-0.0159,-0.0204,-0.0204,-0.0133,-0.0084,-0.0055,0,0,0,0.0077,0.0083,0.006,0.0061,0.0025,0.0,-0.0054,-0.0088,-0.0124,-0.0157,-0.0204,-0.0203,-0.0134,-0.0088,-0.0058,-0.0023,0,0,0,0.0092,0.0085,0.0085,0.0064,0.006,0.0007,-0.0002,-0.0073,-0.0123,-0.018,-0.0181,-0.013,-0.0085,-0.0056,0.0017,0,0,0,0,0.0094,0.0099,0.0091,0.0083,0.0056,0.0045,-0.0025,-0.0052,-0.0098,-0.0138,-0.0137,-0.011,-0.0095,-0.0084,-0.02,-0.02,-0.02,-0.02,-0.02,0.0133,0.012,0.013,0.0115,0.0102,0.0062,0.0047,-0.0001,-0.0063,-0.0065,-0.0055,0.0014,0.0028,-0.0073,-0.0072,-0.0072,-0.0072,-0.0071,-0.0071,0.0165,0.0173,0.0168,0.0173,0.0163,0.0153,0.011,0.0078,0.0061,0.0006,0.0017,-0.0012,-0.0064,-0.0065,-0.0066,-0.0067,-0.0068,-0.0068,-0.0069,0.0191,0.0196,0.0202,0.0224,0.0243,0.0218,0.0259,0.0212,0.014,0.0158,0.0149,0.0067,0.0067,0.0156,0.0156,0.0157,0.0157,0.0157,0.0157,0.0214,0.0222,0.0255,0.0277,0.0307,0.0346,0.0348,0.0344,0.0279,0.0253,0.0184,0.0091,0.0083,0.0079,0.0163,0.0162,0.0161,0.0161,0.016,0.0235,0.0248,0.03,0.0337,0.0416,0.0453,0.0461,0.0449,0.0449,0.0414,0.0289,0.0281,0.0258,0.0247,0.0247,0.0384,0.0385,0.0386,0,0.0256,0.0263,0.0343,0.0416,0.05,0.0519,0.0561,0.0548,0.0458,0.0447,0.042,0.028,0.0273,0.0244,0.0235,0.0236,0,0,0,0.0275,0.0299,0.0361,0.0434,0.053,0.0564,0.0574,0.0563,0.0473,0.0482,0.0406,0.0401,0.0286,0.018,0.0125,0.0116,0.0107,0,0]}]]